map of GYN home
Great Circle Mapper logo
GYN - Airport
Location
City:  Goiania, Goiás, Brazil
Name:Santa Genoveva
ICAO / IATA:SBGO / GYN

Details
Type:Airport (Aerodrome, Airfield)
Use:Public/Civil
Latitude:16°37'55"S (-16.632032)
Longitude:49°13'14"W (-49.220685)
Datum:WGS 1984
Elevation:2450 ft (747 m)
Variation:20.70°W (WMM2015 magnetic declination)
-0.11° annual change
Runways:1
Longest:8204 × 148 ft (2501 × 45 m), paved

Time
Time Zone:UTC-3 (DST-2)
Local Time:

Weather
METAR:SBGO 231400Z 08006KT CAVOK 26/14 Q1022
TAF:SBGO 231000Z 2312/2412 11003KT CAVOK TX27/2318Z TN17/2409Z
BECMG 2312/2314 09008KT
BECMG 2315/2317 SCT036
BECMG 2323/2401 12003KT CAVOK
RMK PDL

Related Locations
Nearby:
Farthest:VRC: 11959 mi / 19246 km
Virac, Catanduanes Island, PH

Find:

   beyond  
but within

Other Information
Maps:
NOTAMs:
Links:
Sources:

  
flag of Brazil
flag of Goiás
  

Sectional Chart

Flight Planning
at skyvector.com

Satellite Image

Google Maps Satellite View

 

Copyright © 2004-2015 Karl L. Swartz. All rights reserved.
The Great Circle Mapper name and logo are trademarks of the Great Circle Mapper.
All other trademarks mentioned herein belong to their respective owners.
Please see credits for attibutions and further copyright information.

  Follow gcmap on Facebook Follow gcmap on Twitter Follow gcmap on Google+

hCard Microformat

Geo Microformat